This is the latest recevied weather packets stored in our database for station/object KE8ZLU. If no packets are shown the sender has not sent any weather packets the latest 10 day(s).
| Time | Temp. | Humidity | Pressure | Rain* | Wind** | Luminosity | Snow |
|---|---|---|---|---|---|---|---|
| 1777399201 | 12.22° C | 81% | 1013.5 hPa | 0 mm | - | 217 W/m² | - |
| 1777398897 | 12.22° C | 83% | 1013.3 hPa | 0 mm | - | 270 W/m² | - |
| 1777398594 | 12.22° C | 83% | 1013.3 hPa | 0 mm | - | 198 W/m² | - |
| 1777398290 | 12.22° C | 84% | 1013.3 hPa | 0 mm | - | 204 W/m² | - |
| 1777397989 | 11.67° C | 84% | 1013.2 hPa | 0 mm | - | 152 W/m² | - |
| 1777397684 | 11.67° C | 84% | 1013.2 hPa | 0 mm | - | 150 W/m² | - |
| 1777397380 | 11.67° C | 85% | 1013.3 hPa | 0 mm | - | 152 W/m² | - |
| 1777397077 | 11.67° C | 84% | 1013.1 hPa | 0 mm | - | 159 W/m² | - |
| 1777396773 | 11.67° C | 84% | 1013.2 hPa | 0 mm | - | 138 W/m² | - |
| 1777396471 | 11.67° C | 84% | 1013 hPa | 0 mm | - | 172 W/m² | - |
| 1777396167 | 11.67° C | 84% | 1013 hPa | 0 mm | - | 183 W/m² | - |
| 1777395863 | 11.67° C | 83% | 1013.1 hPa | 0 mm | - | 204 W/m² | - |
| 1777395559 | 11.67° C | 84% | 1013.1 hPa | 0 mm | - | 198 W/m² | - |
| 1777395255 | 11.67° C | 85% | 1012.9 hPa | 0 mm | - | 168 W/m² | - |
| 1777394953 | 11.67° C | 85% | 1013 hPa | 0 mm | - | 161 W/m² | - |
| 1777394649 | 11.67° C | 85% | 1013 hPa | 0 mm | - | 213 W/m² | - |
| 1777394346 | 11.67° C | 85% | 1013 hPa | 0 mm | - | 182 W/m² | - |
| 1777394042 | 11.67° C | 85% | 1012.9 hPa | 0 mm | - | 187 W/m² | - |
| 1777393742 | 11.67° C | 85% | 1012.6 hPa | 0 mm | - | 156 W/m² | - |
| 1777393437 | 11.67° C | 85% | 1012.8 hPa | 0 mm | - | 178 W/m² | - |
| 1777393134 | 11.67° C | 85% | 1013.1 hPa | 0 mm | - | 156 W/m² | - |
| 1777392829 | 11.67° C | 85% | 1012.8 hPa | 0 mm | - | 154 W/m² | - |
| 1777392525 | 11.67° C | 85% | 1012.9 hPa | 0 mm | - | 101 W/m² | - |
| 1777392221 | 11.67° C | 85% | 1012.8 hPa | 0 mm | - | 108 W/m² | - |
| 1777391917 | 11.67° C | 85% | 1012.5 hPa | 0 mm | - | 114 W/m² | - |
* Rain latest hour (hover to see other rain measurements)
** Current wind speed in m/s (hover to see current wind gust speed)